This is the latest recevied weather packets stored in our database for station/object IA5FYI-13. If no packets are shown the sender has not sent any weather packets the latest 10 day(s).
| Time | Temp. | Humidity | Pressure | Rain* | Wind** | Luminosity | Snow |
|---|---|---|---|---|---|---|---|
| 1777636509 | 20° C | 42% | 1021.7 hPa | 0 mm | - | - | - |
| 1777635613 | 20° C | 41% | 1021.7 hPa | 0 mm | - | - | - |
| 1777635309 | 20° C | 40% | 1022 hPa | 0 mm | - | - | - |
| 1777635022 | 20° C | 41% | 1021.7 hPa | 0 mm | - | - | - |
| 1777634709 | 20° C | 40% | 1022 hPa | 0 mm | - | - | - |
| 1777634413 | 20° C | 42% | 1022 hPa | 0 mm | - | - | - |
| 1777634112 | 20° C | 43% | 1022 hPa | 0 mm | - | - | - |
| 1777633812 | 20° C | 41% | 1022 hPa | 0 mm | - | - | - |
| 1777633509 | 20° C | 42% | 1022.4 hPa | 0 mm | - | - | - |
| 1777633232 | 20° C | 43% | 1022.4 hPa | 0 mm | - | - | - |
| 1777632909 | 18.89° C | 44% | 1022.4 hPa | 0 mm | - | - | - |
| 1777632312 | 18.89° C | 42% | 1022.4 hPa | 0 mm | - | - | - |
| 1777632013 | 20° C | 41% | 1022.7 hPa | 0 mm | - | - | - |
| 1777631712 | 18.89° C | 44% | 1022.4 hPa | 0 mm | - | - | - |
| 1777631423 | 18.89° C | 43% | 1022.7 hPa | 0 mm | - | - | - |
| 1777631109 | 18.89° C | 44% | 1022.4 hPa | 0 mm | - | - | - |
| 1777630813 | 18.89° C | 45% | 1022.7 hPa | 0 mm | - | - | - |
| 1777630512 | 18.89° C | 46% | 1022.7 hPa | 0 mm | - | - | - |
| 1777630213 | 17.78° C | 46% | 1022.7 hPa | 0 mm | - | - | - |
| 1777629909 | 18.89° C | 43% | 1022.7 hPa | 0 mm | - | - | - |
| 1777629633 | 18.89° C | 41% | 1022.7 hPa | 0 mm | - | - | - |
| 1777629309 | 18.89° C | 41% | 1022.7 hPa | 0 mm | - | - | - |
| 1777629013 | 18.89° C | 41% | 1022.7 hPa | 0 mm | - | - | - |
| 1777628412 | 17.78° C | 46% | 1023 hPa | 0 mm | - | - | - |
| 1777628109 | 17.78° C | 46% | 1023 hPa | 0 mm | - | - | - |
* Rain latest hour (hover to see other rain measurements)
** Current wind speed in m/s (hover to see current wind gust speed)